Flight Information

DEPARTURE
JACKSON, WY
Elevation:
6450
Runways:
1/19 - 6300x150 - ASPH-G
ATIS:
120.625
Ground:
124.55
Tower:
JACKSON TOWER 118.075
DESTINATION
,
Elevation:
TPA:
1000 (est.)


6291.1 NM75° True-15° Var60° HDG

Flight Plan:
(click to file on line)

1. Type
2. Aircraft Identification
3. Aircraft Type / Special Equipment
4. True Airspeed
kts
5. Departure Airport
(ICAO code)
6. Arriving Airport
(ICAO code)
7. Cruising Altitude
ft
8. Alternate Airport
(ICAO code)
9. Route of Flight
10. Remarks


00:00:00 Departure ATIS: Destination ATIS:

Clearance Limit:
Route:
Altitude: Expect in minutes
Frequency:
Transponder: (7500 Hijack / 7600 Lost Comms / 7700 Emergency)


KJAC 282056Z 00000KT 10SM CLR M08/M17 A3055 RMK AO2 SLP470 T10781172 58025
Time: 2022-01-28T20:56:00Z
1643405327
Winds: calm
Visibility: 10.0 sm
Clouds (AGL): CLR
Temperature: -7.8 C
Dew Point: -17.2 C
Pressure: 30.549213 in Hgbr


Notes:

Data extracted from FAA Digital Chart Supplement. Effective: 0901Z Thursday, DEC 2, 2021 to 0901Z Thursday, JAN 27, 2022
Current ATIS data is provided courtisy of PilotEdge.